Theta_e
302 297 295 298 301 302 303 302 301 306 309 308 308 308 312 316 316 316 317 317 319 321 324 328 330 342 339 342 347 349 348 352 348 346 341 339 337 340 340 343 344 343 343 341
297 295 301 302 302 301 300 300 301 305 308 307 307 308 313 315 315 316 317 317 318 321 324 327 333 339 340 342 346 346 346 350 346 344 342 340 339 338 338 343 343 343 340 342
294 297 302 301 299 299 300 299 300 300 304 307 306 305 309 313 316 317 318 319 320 320 319 323 332 337 338 339 341 342 345 346 345 346 343 348 347 343 340 340 339 341 340 340
295 301 298 299 298 299 296 302 301 301 300 297 306 296 306 310 312 315 317 318 318 319 321 326 331 335 337 337 340 342 344 343 344 348 345 344 339 334 340 341 340 340 341 338
291 295 297 295 299 302 298 303 302 301 300 300 300 298 302 309 308 311 315 317 318 320 324 325 332 334 335 338 338 341 343 342 345 346 345 342 341 340 340 340 339 341 340 338
294 299 298 299 301 301 304 301 301 301 300 294 300 298 299 303 307 310 314 315 317 320 322 329 333 335 335 337 338 340 340 341 343 344 346 345 342 341 338 338 337 338 336 338
294 293 296 299 297 301 300 299 292 290 291 291 301 298 301 307 311 312 313 316 318 322 323 329 331 331 333 334 337 338 338 339 341 341 342 341 342 342 340 339 338 337 336 335
288 287 293 298 297 297 298 299 293 286 288 292 299 295 300 310 313 315 316 318 320 322 328 329 330 331 332 334 336 336 337 337 339 338 339 341 342 338 340 341 337 339 339 338
287 289 299 297 299 300 298 295 302 296 297 293 297 302 307 311 312 314 315 318 320 326 327 328 330 331 332 333 335 336 337 337 337 337 339 339 340 341 340 339 339 339 340 339
291 286 296 299 298 300 299 303 294 297 288 288 295 298 300 308 311 313 314 317 320 326 327 328 330 331 333 334 336 338 338 336 336 337 337 337 338 337 339 339 337 340 339 338
294 290 291 297 294 294 297 296 298 300 297 291 291 296 312 310 312 313 315 316 320 325 326 327 329 331 333 334 334 336 336 334 334 335 337 337 337 337 337 338 338 338 338 337
295 291 289 292 299 300 301 298 299 295 294 297 297 298 313 313 313 315 316 317 323 326 326 328 329 330 331 332 333 334 333 331 333 334 335 335 334 336 337 335 337 335 336 335
294 291 286 289 295 300 298 300 301 302 304 297 294 298 313 311 313 315 317 316 323 324 326 327 327 328 330 331 331 330 331 331 331 332 334 334 334 337 336 337 337 337 337 334
297 291 288 285 289 293 293 298 300 301 296 297 299 301 306 309 312 315 318 322 323 324 326 326 326 328 330 330 329 328 329 331 331 332 333 332 331 335 336 337 337 336 336 334
295 286 289 291 291 292 292 294 298 298 301 297 301 303 306 311 315 319 323 324 322 323 324 325 326 328 329 329 328 327 328 330 330 330 333 333 332 335 335 335 336 336 335 334
294 286 290 288 292 290 289 294 298 300 301 303 304 304 310 313 313 318 320 321 321 322 323 325 327 328 329 328 325 327 327 329 330 330 331 333 332 332 332 335 335 334 333 333
291 290 289 286 291 290 287 295 299 301 304 304 301 307 311 309 310 315 320 321 322 323 324 325 327 328 330 328 327 327 328 329 329 329 332 331 331 330 332 333 334 333 333 333
292 290 290 287 289 279 293 305 304 302 304 308 307 307 309 310 313 314 318 321 323 324 324 326 328 330 332 329 327 328 328 327 327 328 328 330 331 330 332 332 333 334 334 331
297 292 289 286 286 289 295 302 303 300 301 308 308 309 308 311 315 317 319 321 324 328 328 328 331 332 332 329 328 327 326 326 325 326 328 328 330 329 329 332 333 333 329 329
296 295 290 289 284 283 294 303 308 308 298 309 311 311 311 312 306 312 319 320 322 326 330 329 331 333 333 330 329 327 325 325 324 326 327 329 331 330 329 332 334 335 330 329
289 290 288 288 287 291 297 304 309 296 296 310 311 311 311 309 312 318 321 322 324 326 329 332 332 331 334 331 330 327 325 324 325 327 328 330 332 332 332 334 335 334 331 330
289 288 289 291 287 285 299 302 297 301 309 310 311 312 311 313 315 317 319 321 322 324 327 331 332 333 334 331 329 327 326 327 326 327 327 329 333 330 332 333 335 333 332 327
288 290 288 291 290 298 302 301 305 306 306 308 310 312 313 313 314 317 318 321 322 324 327 329 332 334 334 331 329 327 329 327 325 326 328 331 334 333 333 331 333 331 332 327
294 298 293 293 295 299 301 304 306 306 306 309 310 311 313 312 315 316 318 321 323 323 325 328 332 333 332 332 330 330 329 327 325 327 329 330 332 332 332 330 329 326 330 328
294 296 294 294 297 299 300 302 304 306 307 308 309 310 311 313 314 316 317 320 324 325 327 329 331 332 333 333 331 331 328 327 326 327 329 329 331 333 332 330 326 326 329 327
296 294 291 290 298 298 298 302 304 304 305 308 308 308 311 313 314 316 317 321 325 327 327 329 331 334 334 333 331 330 328 327 328 327 327 327 327 329 331 329 325 298 303 300
Wind_Speed
22 17 25 40 29 29 29 32 32 28 25 28 26 27 28 22 20 20 15 16 20 17 12 9 12 3 7 5 7 7 8 7 9 8 7 6 6 4 5 4 6 5 3 2
21 28 38 20 31 30 34 30 31 28 27 24 24 27 24 22 22 20 18 18 16 16 14 11 7 9 7 6 6 6 6 8 9 6 6 5 5 7 7 5 5 5 3 5
24 36 22 29 29 31 32 30 26 30 25 27 23 25 23 24 22 19 19 19 14 12 21 18 4 10 8 8 7 7 8 10 8 7 5 2 3 2 2 2 3 6 5 5
23 26 31 29 34 32 29 27 29 29 23 19 20 18 23 19 21 19 21 19 14 20 23 9 8 11 10 10 9 9 9 10 7 7 5 5 3 3 1 1 5 4 5 5
30 26 26 32 37 28 34 23 27 27 25 21 23 16 27 17 19 19 19 18 14 19 12 10 16 13 12 11 10 10 11 10 7 5 6 4 4 2 1 2 7 4 3 2
30 26 29 30 26 33 27 27 29 26 19 19 26 20 28 18 20 19 17 18 18 16 14 11 15 14 12 11 12 11 12 9 8 5 6 3 5 2 4 3 2 1 2 3
23 27 32 30 29 29 32 23 16 18 18 20 16 21 21 21 20 18 16 15 16 14 10 18 16 14 13 14 13 12 12 11 9 7 5 4 3 2 1 1 1 2 1 2
13 19 28 28 33 27 29 26 16 27 16 19 20 25 19 24 20 16 16 16 13 11 17 16 15 15 15 15 15 14 13 12 10 8 6 5 5 3 1 1 2 2 2 2
8 16 28 31 29 29 29 30 28 24 21 20 16 18 30 25 18 15 12 14 7 15 15 16 16 15 15 15 14 14 13 11 10 8 6 5 5 2 2 4 4 1 1 1
6 15 22 27 30 34 32 19 28 18 24 23 19 21 14 14 16 11 12 12 10 17 16 15 15 15 15 14 12 13 12 11 9 9 6 5 5 4 2 1 3 2 3 4
7 8 17 22 26 29 26 28 24 20 19 16 14 14 7 3 5 5 17 15 10 18 16 16 15 15 15 14 13 11 11 11 9 8 6 7 4 5 4 3 2 4 2 3
7 5 14 24 23 22 28 25 25 19 22 18 14 15 6 6 4 7 9 16 19 19 17 17 16 16 16 14 13 11 10 11 9 8 8 5 6 6 4 4 3 3 1 4
3 9 12 16 16 21 19 29 24 20 11 19 18 14 9 6 6 6 9 14 20 18 18 17 17 15 15 14 13 12 11 11 10 9 8 5 8 5 5 4 4 4 2 2
3 8 15 13 7 14 11 20 30 26 17 18 18 10 8 8 7 9 13 21 19 17 18 17 16 15 15 14 13 12 11 11 10 10 9 7 8 5 5 4 3 4 5 3
0 8 18 19 23 16 19 31 27 29 22 22 20 18 10 10 8 11 13 15 16 17 18 17 15 15 15 14 13 12 11 11 10 8 10 9 9 6 7 5 4 3 5 5
3 5 14 19 14 11 21 35 28 28 28 26 22 16 19 11 6 9 9 13 14 17 17 17 15 16 15 14 13 12 10 11 9 8 12 9 7 6 8 7 6 4 6 5
5 5 5 5 5 5 20 24 22 24 27 25 19 5 24 9 6 6 10 11 14 17 16 17 15 15 13 13 11 12 11 11 9 8 14 11 10 8 4 8 6 7 5 6
13 11 7 3 11 6 16 16 21 16 19 21 10 8 10 19 5 4 12 8 8 15 15 16 14 13 13 13 12 11 12 11 10 9 9 11 13 9 5 8 7 7 6 6
14 5 5 5 5 7 24 12 21 2 13 20 8 8 7 6 15 15 16 14 13 5 13 14 13 14 13 13 13 12 12 12 11 11 10 10 12 9 10 10 8 7 5 6
10 7 5 6 3 7 6 19 23 4 7 18 16 17 16 6 7 9 13 13 13 15 7 13 15 15 14 13 13 11 12 12 11 11 11 9 12 10 10 9 9 7 7 4
5 5 9 8 4 5 15 26 21 6 2 10 13 14 14 13 9 8 10 10 9 10 10 16 16 14 13 13 13 12 12 12 11 11 11 9 11 10 11 7 7 6 8 7
6 4 3 4 4 3 18 11 12 9 10 13 14 13 11 10 10 9 11 10 11 10 9 12 15 15 14 14 13 13 12 11 11 12 12 10 13 10 10 8 5 9 8 8
2 5 4 8 5 7 9 8 10 9 11 14 14 15 12 12 11 10 10 9 8 9 8 7 15 16 15 15 14 13 11 12 12 12 11 11 10 12 11 9 5 8 7 8
4 9 3 7 10 3 4 9 11 13 13 12 13 14 12 11 11 10 10 9 10 9 8 10 13 17 15 15 15 12 13 12 12 12 12 11 8 12 11 8 6 7 8 8
5 9 12 0 7 10 13 14 12 15 12 9 11 12 13 12 9 9 10 11 10 9 10 9 9 16 16 15 15 13 15 13 11 11 12 11 9 8 11 9 6 7 2 7
7 7 5 4 16 9 14 15 16 13 10 6 8 10 13 15 8 11 10 12 11 11 9 9 9 16 17 17 16 15 15 14 12 12 11 10 9 8 9 8 6 11 10 13
Wind_Direction
221 217 220 219 220 239 236 237 246 252 249 247 252 257 267 274 264 257 270 265 259 255 247 246 268 173 109 88 86 103 120 130 140 146 167 181 196 183 205 211 192 174 178 116
229 218 224 230 228 233 245 248 250 260 260 260 263 260 252 255 261 261 242 247 265 283 298 262 264 114 120 118 128 128 142 140 143 145 177 185 192 191 198 187 170 137 150 167
225 237 224 232 235 236 236 236 247 259 266 266 271 269 272 270 267 269 267 263 255 271 273 271 195 133 135 136 143 152 144 137 150 155 192 153 119 91 114 148 174 168 170 188
250 243 243 226 235 231 243 234 243 250 252 258 258 269 256 262 266 260 266 264 248 247 246 237 155 138 141 139 142 136 136 147 174 171 160 144 178 191 186 134 97 112 171 179
248 248 236 239 237 228 245 244 251 248 250 259 254 260 268 271 265 254 254 252 252 248 257 248 129 139 137 135 139 139 141 161 174 150 151 160 255 227 154 138 141 163 119 219
256 254 253 248 243 248 245 239 249 258 255 245 242 244 264 256 261 265 263 257 243 254 232 139 123 131 133 139 140 142 151 175 134 177 136 199 171 15 44 56 19 132 207 214
247 243 251 249 254 235 239 230 233 232 234 242 241 240 255 265 262 265 276 278 259 254 211 130 137 142 141 145 143 148 164 144 160 170 146 162 148 140 40 305 354 333 178 218
266 256 227 236 238 239 225 233 223 221 222 240 240 251 261 252 259 250 246 248 264 215 120 131 143 139 152 148 152 159 160 155 166 159 158 147 146 192 175 42 346 74 88 225
321 281 261 226 244 238 232 224 236 246 236 245 261 247 234 244 243 231 210 242 158 124 129 138 147 147 149 151 160 155 160 158 166 155 135 153 158 195 52 53 57 23 357 124
300 285 277 272 218 243 239 226 224 223 231 246 238 241 257 184 218 217 207 220 209 137 142 148 146 152 147 153 157 156 156 156 159 137 158 160 133 129 124 149 144 163 216 165
246 221 275 286 243 219 227 225 220 243 222 239 249 267 70 84 132 218 193 203 195 142 149 149 150 147 148 153 156 154 157 156 154 145 141 141 152 144 128 193 129 106 159 150
311 299 270 271 272 236 238 224 230 220 209 228 246 236 82 149 208 233 257 193 148 145 151 150 152 153 152 160 150 158 154 157 154 167 131 137 144 116 115 121 119 123 79 148
16 235 266 251 259 266 258 226 233 237 230 216 234 246 157 169 211 237 271 165 138 145 148 151 153 158 156 159 157 162 163 157 158 160 147 159 114 137 138 118 117 119 127 120
310 258 263 272 316 334 323 269 228 223 206 226 223 208 166 198 191 202 227 125 138 150 148 151 159 160 160 156 163 162 171 154 162 159 148 120 120 133 126 122 111 126 123 114
46 286 297 287 268 277 300 291 253 222 196 219 229 222 196 181 134 95 108 130 142 150 155 157 165 157 161 157 157 161 168 157 160 162 137 121 133 156 132 138 121 99 102 87
280 282 276 272 256 264 293 283 275 219 219 213 237 147 86 62 13 125 143 148 151 154 163 157 165 157 164 157 160 161 165 152 162 161 136 139 125 124 151 133 125 127 126 121
282 275 302 271 164 22 283 251 252 239 203 204 215 252 130 196 261 92 141 151 161 157 164 163 164 162 160 158 162 159 161 153 161 170 147 160 143 137 182 124 128 113 112 95
250 285 292 50 130 209 265 249 263 200 186 210 145 109 109 150 208 350 48 75 164 164 175 160 159 157 154 154 158 163 158 158 167 175 165 150 146 148 143 117 118 114 110 110
225 265 286 250 227 348 302 18 320 283 49 19 73 207 159 63 100 53 29 23 9 231 168 153 155 152 152 156 154 167 163 165 171 175 161 165 142 146 132 122 126 132 123 131
191 195 225 301 209 202 327 324 316 344 79 17 16 30 41 30 107 33 358 11 3 337 158 153 150 151 152 156 155 171 166 172 174 172 165 170 143 143 119 119 140 146 139 145
193 228 245 275 274 31 324 328 305 156 235 24 30 33 24 32 18 336 339 3 348 314 312 151 150 156 156 155 157 179 169 177 178 165 160 163 121 117 119 118 125 125 131 129
333 305 326 299 339 357 336 11 48 323 17 27 32 32 22 17 353 357 354 347 327 315 323 168 149 150 156 159 161 186 171 176 180 160 157 155 136 135 128 133 143 128 125 124
12 358 313 9 29 294 323 359 352 349 18 20 12 7 13 10 359 345 343 320 296 297 298 275 153 150 161 164 169 188 169 177 179 159 151 146 149 136 140 141 158 132 142 137
30 320 13 329 355 29 346 338 345 3 3 1 359 346 360 353 343 337 331 320 302 273 246 268 165 155 165 170 174 187 168 183 174 154 147 147 162 145 151 151 177 154 163 160
341 338 332 253 351 339 6 354 354 326 342 355 353 347 331 324 335 339 318 309 295 271 267 240 203 159 166 172 176 182 173 185 167 154 150 155 169 169 157 166 184 168 109 172
3 356 332 317 325 317 309 318 317 309 320 323 329 331 319 309 342 330 329 314 306 297 270 254 236 160 167 175 179 182 177 182 162 161 161 164 172 188 167 152 139 37 83 104